Hourly Weather Oruro

Today, 10 August, Monday

Time Temperature Precipitation Wind Pressure Humidity
00:00 +6°C° 0 mm 1 mps 475 mmHg 36%
01:00 +5°C° 0 mm 1 mps 474 mmHg 40%
02:00 +3°C° 0 mm 0 mps 473 mmHg 43%
03:00 +2°C° 0 mm 0 mps 472 mmHg 46%
04:00 +2°C° 0 mm 0 mps 472 mmHg 49%
05:00 +1°C° 0 mm 0 mps 471 mmHg 52%
06:00 +3°C° 0 mm 0 mps 472 mmHg 45%
07:00 +4°C° 0 mm 0 mps 474 mmHg 39%
08:00 +6°C° 0 mm 0 mps 475 mmHg 32%
09:00 +8°C° 0 mm 0 mps 477 mmHg 26%
10:00 +11°C° 0 mm 1 mps 478 mmHg 20%
11:00 +13°C° 0 mm 1 mps 479 mmHg 14%
12:00 +14°C° 0 mm 1 mps 479 mmHg 12%
13:00 +15°C° 0 mm 2 mps 479 mmHg 11%
14:00 +16°C° 0 mm 2 mps 479 mmHg 9%
15:00 +16°C° 0 mm 3 mps 478 mmHg 10%
16:00 +15°C° 0 mm 4 mps 478 mmHg 10%
17:00 +15°C° 0 mm 4 mps 477 mmHg 11%
18:00 +13°C° 0 mm 4 mps 477 mmHg 14%
19:00 +11°C° 0 mm 3 mps 476 mmHg 16%
20:00 +9°C° 0 mm 2 mps 475 mmHg 19%
21:00 +8°C° 0 mm 2 mps 475 mmHg 20%
22:00 +8°C° 0 mm 2 mps 475 mmHg 22%
23:00 +7°C° 0 mm 2 mps 475 mmHg 23%

Tomorrow, 11 August, Tuesday

Time Temperature Precipitation Wind Pressure Humidity
00:00 +6°C° 0 mm 2 mps 474 mmHg 23%
01:00 +5°C° 0 mm 2 mps 473 mmHg 23%
02:00 +4°C° 0 mm 2 mps 472 mmHg 22%
03:00 +4°C° 0 mm 1 mps 472 mmHg 23%
04:00 +3°C° 0 mm 1 mps 471 mmHg 24%
05:00 +2°C° 0 mm 1 mps 470 mmHg 25%
06:00 +4°C° 0 mm 1 mps 472 mmHg 23%
07:00 +5°C° 0 mm 1 mps 473 mmHg 21%
08:00 +5°C° 0 mm 0 mps 474 mmHg 20%
09:00 +8°C° 0 mm 1 mps 475 mmHg 17%
10:00 +9°C° 0 mm 1 mps 476 mmHg 14%
11:00 +10°C° 0 mm 2 mps 477 mmHg 12%
12:00 +12°C° 0 mm 2 mps 477 mmHg 13%
13:00 +12°C° 0 mm 3 mps 477 mmHg 15%
14:00 +12°C° 0 mm 3 mps 477 mmHg 16%
15:00 +12°C° 0 mm 4 mps 477 mmHg 18%
16:00 +12°C° 0 mm 5 mps 476 mmHg 19%
17:00 +11°C° 0 mm 6 mps 476 mmHg 21%
18:00 +10°C° 0 mm 4 mps 475 mmHg 31%
19:00 +8°C° 0 mm 3 mps 474 mmHg 41%
20:00 +6°C° 0 mm 2 mps 474 mmHg 51%
21:00 +7°C° 0 mm 1 mps 474 mmHg 54%
22:00 +6°C° 0 mm 1 mps 473 mmHg 57%
23:00 +5°C° 0 mm 1 mps 473 mmHg 60%

Day after tomorrow, 12 August, Wednesday

Time Temperature Precipitation Wind Pressure Humidity
00:00 +4°C° 0 mm 1 mps 472 mmHg 59%
01:00 +3°C° 0 mm 1 mps 472 mmHg 58%
02:00 +3°C° 0 mm 1 mps 471 mmHg 56%
03:00 +2°C° 0 mm 1 mps 471 mmHg 57%
04:00 +1°C° 0 mm 1 mps 470 mmHg 57%
05:00 +1°C° 0 mm 1 mps 470 mmHg 58%
06:00 +1°C° 0 mm 2 mps 471 mmHg 52%
07:00 +2°C° 0 mm 2 mps 472 mmHg 46%
08:00 +2°C° 0 mm 2 mps 473 mmHg 39%
09:00 +4°C° 0 mm 4 mps 474 mmHg 32%
10:00 +7°C° 0 mm 6 mps 476 mmHg 24%
11:00 +9°C° 0 mm 8 mps 478 mmHg 17%
12:00 +11°C° 0 mm 9 mps 478 mmHg 14%
13:00 +12°C° 0 mm 10 mps 477 mmHg 11%
14:00 +13°C° 0 mm 10 mps 477 mmHg 8%
15:00 +13°C° 0 mm 10 mps 477 mmHg 8%
16:00 +12°C° 0 mm 10 mps 477 mmHg 8%
17:00 +12°C° 0 mm 10 mps 476 mmHg 7%
18:00 +10°C° 0 mm 8 mps 475 mmHg 9%
19:00 +7°C° 0 mm 6 mps 474 mmHg 11%
20:00 +3°C° 0 mm 5 mps 473 mmHg 12%
21:00 +3°C° 0 mm 4 mps 473 mmHg 14%
22:00 +2°C° 0 mm 3 mps 472 mmHg 15%
23:00 +1°C° 0 mm 3 mps 472 mmHg 16%

13 August, Thursday

Time Temperature Precipitation Wind Pressure Humidity
00:00 +1°C° 0 mm 2 mps 471 mmHg 18%
01:00 -1°C° 0 mm 2 mps 470 mmHg 19%
02:00 -1°C° 0 mm 2 mps 470 mmHg 21%
03:00 0°C° 0 mm 1 mps 469 mmHg 23%
04:00 -1°C° 0 mm 1 mps 469 mmHg 25%
05:00 -1°C° 0 mm 1 mps 468 mmHg 27%
06:00 0°C° 0 mm 1 mps 470 mmHg 25%
07:00 +2°C° 0 mm 1 mps 471 mmHg 24%
08:00 +2°C° 0 mm 2 mps 473 mmHg 22%
09:00 +3°C° 0 mm 3 mps 474 mmHg 19%
10:00 +6°C° 0 mm 4 mps 476 mmHg 16%
11:00 +8°C° 0 mm 5 mps 477 mmHg 13%
12:00 +10°C° 0 mm 7 mps 477 mmHg 12%
13:00 +11°C° 0 mm 8 mps 478 mmHg 11%
14:00 +13°C° 0 mm 9 mps 478 mmHg 11%
15:00 +13°C° 0 mm 9 mps 477 mmHg 10%
16:00 +13°C° 0 mm 9 mps 477 mmHg 10%
17:00 +12°C° 0 mm 8 mps 476 mmHg 10%
18:00 +10°C° 0 mm 7 mps 475 mmHg 11%
19:00 +7°C° 0 mm 6 mps 474 mmHg 13%
20:00 +5°C° 0 mm 4 mps 473 mmHg 15%
21:00 +4°C° 0 mm 4 mps 473 mmHg 18%
22:00 +2°C° 0 mm 3 mps 472 mmHg 20%
23:00 +2°C° 0 mm 2 mps 471 mmHg 22%

14 August, Friday

Time Temperature Precipitation Wind Pressure Humidity
00:00 +2°C° 0 mm 2 mps 471 mmHg 24%
01:00 +1°C° 0 mm 2 mps 470 mmHg 26%
02:00 +2°C° 0 mm 1 mps 470 mmHg 28%
03:00 +1°C° 0 mm 1 mps 469 mmHg 30%
04:00 0°C° 0 mm 1 mps 469 mmHg 33%
05:00 0°C° 0 mm 1 mps 468 mmHg 36%
06:00 +1°C° 0 mm 1 mps 470 mmHg 33%
07:00 +2°C° 0 mm 1 mps 471 mmHg 31%
08:00 +4°C° 0 mm 1 mps 473 mmHg 28%
09:00 +5°C° 0 mm 2 mps 474 mmHg 25%
10:00 +7°C° 0 mm 3 mps 475 mmHg 22%
11:00 +8°C° 0 mm 4 mps 476 mmHg 19%
12:00 +10°C° 0 mm 6 mps 477 mmHg 17%
13:00 +11°C° 0 mm 8 mps 477 mmHg 16%
14:00 +13°C° 0 mm 10 mps 477 mmHg 14%
15:00 +13°C° 0 mm 9 mps 477 mmHg 14%
16:00 +13°C° 0 mm 8 mps 477 mmHg 14%
17:00 +13°C° 0 mm 8 mps 476 mmHg 14%
18:00 +10°C° 0 mm 6 mps 476 mmHg 19%
19:00 +8°C° 0 mm 5 mps 475 mmHg 24%
20:00 +7°C° 0 mm 3 mps 474 mmHg 30%
21:00 +5°C° 0 mm 3 mps 473 mmHg 27%
22:00 +4°C° 0 mm 2 mps 473 mmHg 25%
23:00 +3°C° 0 mm 2 mps 472 mmHg 23%

15 August, Saturday

Time Temperature Precipitation Wind Pressure Humidity
00:00 +2°C° 0 mm 2 mps 471 mmHg 25%
01:00 +2°C° 0 mm 2 mps 471 mmHg 27%
02:00 +1°C° 0 mm 2 mps 470 mmHg 29%
03:00 -1°C° 0 mm 2 mps 470 mmHg 32%
04:00 +1°C° 0 mm 1 mps 469 mmHg 35%
05:00 0°C° 0 mm 1 mps 469 mmHg 39%
06:00 +2°C° 0 mm 1 mps 470 mmHg 37%
07:00 +3°C° 0 mm 1 mps 472 mmHg 34%
08:00 +4°C° 0 mm 1 mps 473 mmHg 32%
09:00 +5°C° 0 mm 2 mps 474 mmHg 33%
10:00 +7°C° 0 mm 4 mps 476 mmHg 34%
11:00 +9°C° 0 mm 5 mps 477 mmHg 35%
12:00 +11°C° 0 mm 7 mps 477 mmHg 29%
13:00 +13°C° 0 mm 9 mps 477 mmHg 24%
14:00 +14°C° 0 mm 11 mps 478 mmHg 18%
15:00 +14°C° 0 mm 10 mps 477 mmHg 19%
16:00 +15°C° 0 mm 9 mps 477 mmHg 20%
17:00 +13°C° 0 mm 8 mps 476 mmHg 21%
18:00 +11°C° 0 mm 6 mps 475 mmHg 30%
19:00 +8°C° 0 mm 4 mps 474 mmHg 39%
20:00 +7°C° 0 mm 3 mps 473 mmHg 48%
21:00 +6°C° 0 mm 2 mps 473 mmHg 51%
22:00 +5°C° 0 mm 2 mps 472 mmHg 54%
23:00 +4°C° 0 mm 2 mps 472 mmHg 57%
Show more